QPF
0.00 0.00 0.00 0.00 0.00 0.00 0.00 0.00 0.00 0.01 0.01 0.02 0.05 0.04 0.01 0.01 0.01 0.01 0.04 0.06 0.03 0.02 0.01 0.02 0.02 0.01 0.02 0.01 0.02 0.02 0.01 0.01 0.02 0.03 0.03 0.04 0.03 0.02 0.02 0.02 0.03 0.04 0.04 0.04 0.05 0.08 0.10 0.09 0.08
0.00 0.00 0.00 0.00 0.00 0.00 0.00 0.00 0.00 0.01 0.01 0.01 0.02 0.01 0.01 0.01 0.01 0.02 0.04 0.04 0.02 0.01 0.01 0.01 0.02 0.02 0.01 0.01 0.01 0.02 0.01 0.01 0.02 0.03 0.02 0.02 0.02 0.02 0.02 0.02 0.02 0.04 0.04 0.04 0.03 0.03 0.05 0.06 0.06
0.00 0.00 0.00 0.00 0.00 0.00 0.01 0.01 0.01 0.01 0.01 0.01 0.01 0.01 0.01 0.01 0.02 0.02 0.03 0.02 0.02 0.01 0.00 0.01 0.02 0.02 0.01 0.01 0.01 0.01 0.01 0.02 0.02 0.02 0.03 0.03 0.02 0.02 0.02 0.02 0.02 0.03 0.04 0.03 0.02 0.02 0.02 0.04 0.04
0.00 0.00 0.00 0.01 0.01 0.00 0.01 0.01 0.00 0.01 0.01 0.01 0.01 0.01 0.01 0.01 0.01 0.01 0.01 0.00 0.00 0.00 0.00 0.01 0.02 0.01 0.01 0.01 0.01 0.00 0.00 0.01 0.02 0.02 0.02 0.03 0.02 0.02 0.02 0.02 0.02 0.04 0.04 0.03 0.03 0.03 0.03 0.03 0.03
0.00 0.00 0.01 0.01 0.01 0.01 0.01 0.01 0.00 0.01 0.00 0.01 0.01 0.01 0.01 0.02 0.01 0.01 0.01 0.00 0.00 0.00 0.00 0.00 0.01 0.01 0.01 0.01 0.01 0.00 0.00 0.00 0.01 0.02 0.03 0.02 0.02 0.02 0.02 0.02 0.03 0.05 0.04 0.04 0.03 0.03 0.03 0.03 0.03
0.00 0.00 0.01 0.00 0.02 0.01 0.01 0.01 0.00 0.01 0.00 0.00 0.01 0.01 0.01 0.02 0.02 0.01 0.00 0.00 0.00 0.00 0.00 0.00 0.01 0.01 0.01 0.01 0.01 0.01 0.01 0.01 0.01 0.01 0.02 0.03 0.03 0.03 0.03 0.04 0.03 0.04 0.04 0.04 0.05 0.03 0.03 0.03 0.04
0.00 0.00 0.00 0.00 0.01 0.01 0.00 0.01 0.01 0.01 0.01 0.01 0.00 0.01 0.01 0.01 0.01 0.00 0.01 0.01 0.01 0.00 0.00 0.00 0.00 0.01 0.02 0.02 0.01 0.01 0.00 0.00 0.01 0.01 0.01 0.02 0.03 0.04 0.04 0.05 0.05 0.05 0.04 0.05 0.05 0.04 0.04 0.04 0.06
0.00 0.00 0.00 0.00 0.00 0.00 0.00 0.00 0.01 0.01 0.01 0.00 0.01 0.01 0.00 0.00 0.00 0.01 0.01 0.02 0.01 0.01 0.01 0.01 0.00 0.00 0.00 0.01 0.01 0.01 0.00 0.01 0.01 0.01 0.01 0.02 0.04 0.05 0.05 0.04 0.06 0.06 0.06 0.06 0.06 0.05 0.05 0.07 0.08
0.00 0.00 0.00 0.00 0.00 0.00 0.00 0.00 0.00 0.01 0.00 0.00 0.00 0.00 0.00 0.00 0.01 0.01 0.01 0.01 0.02 0.01 0.01 0.01 0.02 0.01 0.01 0.00 0.00 0.00 0.01 0.01 0.01 0.01 0.01 0.02 0.04 0.05 0.06 0.05 0.06 0.08 0.07 0.08 0.09 0.07 0.07 0.08 0.09
0.00 0.00 0.00 0.00 0.00 0.00 0.00 0.00 0.00 0.00 0.00 0.00 0.00 0.00 0.00 0.01 0.01 0.01 0.02 0.02 0.01 0.01 0.01 0.00 0.01 0.01 0.01 0.00 0.00 0.00 0.00 0.00 0.00 0.00 0.01 0.01 0.03 0.04 0.05 0.05 0.05 0.07 0.08 0.09 0.11 0.10 0.09 0.07 0.06
0.00 0.00 0.00 0.00 0.00 0.01 0.01 0.00 0.00 0.00 0.00 0.01 0.01 0.01 0.02 0.02 0.01 0.01 0.01 0.02 0.01 0.01 0.01 0.00 0.01 0.01 0.00 0.00 0.00 0.00 0.00 0.00 0.00 0.00 0.01 0.01 0.02 0.05 0.05 0.04 0.04 0.03 0.04 0.04 0.05 0.06 0.05 0.04 0.04
0.00 0.00 0.00 0.00 0.00 0.00 0.00 0.00 0.00 0.00 0.01 0.01 0.01 0.01 0.01 0.01 0.01 0.01 0.01 0.01 0.01 0.01 0.02 0.02 0.02 0.02 0.01 0.01 0.01 0.00 0.00 0.00 0.01 0.03 0.02 0.03 0.03 0.05 0.05 0.04 0.03 0.02 0.02 0.03 0.02 0.02 0.03 0.03 0.03
0.00 0.00 0.00 0.00 0.00 0.00 0.00 0.00 0.00 0.00 0.01 0.01 0.01 0.01 0.01 0.01 0.01 0.01 0.01 0.01 0.01 0.01 0.02 0.03 0.03 0.02 0.02 0.02 0.01 0.01 0.01 0.02 0.03 0.05 0.05 0.05 0.04 0.05 0.05 0.03 0.04 0.04 0.04 0.03 0.03 0.03 0.03 0.05 0.05
0.00 0.01 0.01 0.01 0.00 0.00 0.00 0.00 0.00 0.00 0.01 0.01 0.00 0.01 0.02 0.01 0.01 0.02 0.01 0.01 0.01 0.01 0.01 0.02 0.03 0.02 0.02 0.02 0.02 0.02 0.03 0.04 0.04 0.04 0.06 0.10 0.06 0.05 0.05 0.04 0.04 0.04 0.03 0.03 0.03 0.03 0.04 0.05 0.05
0.01 0.01 0.01 0.01 0.00 0.00 0.00 0.00 0.00 0.00 0.01 0.00 0.00 0.00 0.01 0.01 0.02 0.02 0.01 0.03 0.03 0.03 0.03 0.03 0.03 0.03 0.03 0.03 0.03 0.03 0.03 0.04 0.06 0.05 0.06 0.11 0.12 0.07 0.04 0.03 0.03 0.03 0.02 0.02 0.02 0.03 0.04 0.04 0.04
0.02 0.02 0.01 0.00 0.00 0.00 0.00 0.00 0.01 0.01 0.00 0.00 0.01 0.01 0.01 0.01 0.02 0.02 0.02 0.02 0.02 0.03 0.03 0.03 0.03 0.04 0.03 0.04 0.03 0.02 0.02 0.03 0.04 0.07 0.06 0.08 0.12 0.12 0.06 0.04 0.03 0.03 0.03 0.03 0.03 0.04 0.04 0.05 0.04
0.01 0.01 0.00 0.00 0.00 0.00 0.00 0.00 0.00 0.01 0.01 0.01 0.01 0.01 0.01 0.02 0.02 0.02 0.02 0.02 0.03 0.03 0.02 0.02 0.05 0.07 0.08 0.06 0.05 0.03 0.02 0.01 0.02 0.05 0.05 0.03 0.05 0.08 0.09 0.06 0.04 0.04 0.04 0.04 0.04 0.03 0.04 0.04 0.03
0.00 0.00 0.00 0.00 0.00 0.00 0.00 0.00 0.00 0.01 0.01 0.01 0.01 0.01 0.01 0.01 0.02 0.02 0.02 0.03 0.03 0.03 0.02 0.03 0.08 0.12 0.13 0.15 0.09 0.06 0.05 0.03 0.03 0.03 0.03 0.03 0.03 0.05 0.08 0.09 0.05 0.03 0.03 0.04 0.03 0.03 0.03 0.03 0.03
0.00 0.00 0.00 0.00 0.00 0.00 0.00 0.00 0.00 0.00 0.00 0.01 0.01 0.01 0.01 0.01 0.02 0.02 0.02 0.02 0.03 0.04 0.03 0.04 0.06 0.10 0.12 0.17 0.16 0.11 0.07 0.05 0.05 0.04 0.04 0.03 0.03 0.03 0.06 0.08 0.07 0.03 0.03 0.04 0.03 0.03 0.03 0.03 0.03
0.00 0.00 0.00 0.00 0.00 0.00 0.00 0.00 0.00 0.00 0.00 0.00 0.01 0.02 0.02 0.02 0.02 0.02 0.02 0.03 0.04 0.05 0.04 0.05 0.06 0.08 0.11 0.14 0.13 0.09 0.06 0.04 0.04 0.05 0.04 0.03 0.04 0.04 0.05 0.07 0.08 0.05 0.04 0.03 0.03 0.02 0.02 0.02 0.02
0.00 0.00 0.00 0.00 0.00 0.00 0.00 0.00 0.01 0.00 0.00 0.01 0.01 0.02 0.02 0.02 0.02 0.03 0.03 0.03 0.04 0.05 0.06 0.06 0.06 0.05 0.07 0.07 0.07 0.06 0.06 0.05 0.05 0.06 0.04 0.03 0.04 0.05 0.05 0.07 0.08 0.07 0.04 0.03 0.02 0.02 0.01 0.02 0.03
0.00 0.00 0.00 0.00 0.00 0.00 0.00 0.00 0.01 0.00 0.01 0.01 0.01 0.02 0.02 0.02 0.02 0.03 0.03 0.04 0.03 0.03 0.04 0.06 0.06 0.05 0.05 0.05 0.05 0.04 0.05 0.06 0.08 0.07 0.05 0.04 0.04 0.05 0.05 0.05 0.05 0.05 0.04 0.02 0.02 0.01 0.01 0.02 0.03
0.00 0.00 0.00 0.00 0.00 0.00 0.01 0.00 0.00 0.00 0.00 0.01 0.01 0.02 0.02 0.01 0.01 0.02 0.02 0.02 0.02 0.02 0.03 0.07 0.08 0.05 0.04 0.03 0.03 0.04 0.04 0.05 0.07 0.05 0.05 0.05 0.05 0.05 0.05 0.04 0.05 0.06 0.05 0.04 0.03 0.02 0.02 0.01 0.02
0.00 0.00 0.00 0.00 0.00 0.00 0.00 0.00 0.00 0.01 0.00 0.00 0.00 0.01 0.01 0.01 0.01 0.01 0.01 0.01 0.02 0.02 0.05 0.08 0.09 0.08 0.06 0.05 0.05 0.05 0.04 0.05 0.05 0.05 0.05 0.04 0.04 0.05 0.06 0.05 0.05 0.07 0.07 0.06 0.05 0.04 0.03 0.02 0.02
0.00 0.00 0.01 0.01 0.01 0.00 0.00 0.00 0.01 0.01 0.00 0.00 0.00 0.00 0.01 0.01 0.01 0.01 0.01 0.01 0.03 0.04 0.05 0.07 0.09 0.11 0.08 0.07 0.07 0.05 0.05 0.06 0.04 0.04 0.03 0.03 0.03 0.04 0.05 0.06 0.06 0.06 0.08 0.09 0.08 0.06 0.04 0.03 0.03
0.01 0.01 0.01 0.00 0.00 0.00 0.00 0.01 0.01 0.00 0.01 0.01 0.01 0.01 0.01 0.01 0.01 0.01 0.02 0.02 0.03 0.04 0.05 0.05 0.06 0.09 0.07 0.06 0.05 0.05 0.07 0.07 0.06 0.06 0.05 0.05 0.05 0.04 0.05 0.05 0.05 0.04 0.04 0.06 0.08 0.08 0.07 0.06 0.05
0.00 0.01 0.01 0.01 0.00 0.00 0.01 0.01 0.01 0.00 0.01 0.01 0.01 0.01 0.01 0.01 0.01 0.01 0.02 0.02 0.03 0.04 0.04 0.04 0.05 0.07 0.08 0.06 0.05 0.05 0.05 0.07 0.08 0.08 0.07 0.06 0.05 0.06 0.07 0.06 0.05 0.03 0.02 0.03 0.06 0.08 0.08 0.07 0.06
0.00 0.01 0.01 0.00 0.00 0.00 0.01 0.01 0.01 0.00 0.01 0.01 0.02 0.02 0.01 0.01 0.01 0.01 0.02 0.03 0.03 0.04 0.04 0.05 0.06 0.07 0.08 0.07 0.06 0.05 0.05 0.05 0.05 0.05 0.04 0.04 0.03 0.04 0.04 0.04 0.03 0.02 0.01 0.01 0.03 0.07 0.07 0.06 0.05
0.01 0.01 0.01 0.00 0.01 0.01 0.01 0.01 0.01 0.01 0.01 0.01 0.01 0.01 0.01 0.02 0.02 0.02 0.04 0.05 0.05 0.04 0.06 0.06 0.06 0.08 0.11 0.13 0.12 0.09 0.07 0.05 0.04 0.04 0.04 0.04 0.04 0.03 0.03 0.03 0.02 0.02 0.02 0.02 0.02 0.04 0.05 0.04 0.04
0.01 0.00 0.00 0.00 0.00 0.01 0.01 0.01 0.01 0.02 0.02 0.02 0.02 0.02 0.02 0.03 0.03 0.03 0.04 0.04 0.04 0.05 0.11 0.11 0.08 0.08 0.09 0.11 0.13 0.12 0.09 0.05 0.04 0.03 0.02 0.03 0.03 0.04 0.04 0.04 0.03 0.02 0.02 0.01 0.02 0.03 0.03 0.03 0.03
MSLP
1008.53 1009.58 1010.74 1011.79 1012.58 1012.97 1012.93 1012.50 1011.80 1010.97 1010.19 1009.57 1009.16 1008.96 1008.90 1008.90 1008.86 1008.73 1008.49 1008.20 1007.92 1007.73 1007.69 1007.84 1008.15 1008.58 1009.05 1009.50 1009.87 1010.15 1010.37 1010.57 1010.81 1011.12 1011.53 1012.03 1012.57 1013.10 1013.59 1013.98 1014.28 1014.50 1014.67 1014.83 1015.01 1015.22 1015.46 1015.71 1015.96
1009.09 1010.29 1011.51 1012.52 1013.16 1013.33 1013.01 1012.29 1011.29 1010.22 1009.25 1008.50 1008.03 1007.82 1007.80 1007.86 1007.91 1007.88 1007.77 1007.60 1007.45 1007.38 1007.47 1007.73 1008.14 1008.65 1009.17 1009.66 1010.05 1010.36 1010.60 1010.81 1011.06 1011.39 1011.79 1012.27 1012.79 1013.29 1013.75 1014.12 1014.41 1014.64 1014.84 1015.04 1015.26 1015.51 1015.78 1016.05 1016.29
1009.74 1011.02 1012.21 1013.11 1013.57 1013.50 1012.92 1011.93 1010.72 1009.48 1008.39 1007.58 1007.10 1006.91 1006.94 1007.07 1007.20 1007.26 1007.24 1007.18 1007.14 1007.20 1007.39 1007.74 1008.22 1008.79 1009.35 1009.87 1010.29 1010.61 1010.86 1011.09 1011.35 1011.67 1012.07 1012.52 1012.99 1013.45 1013.85 1014.18 1014.46 1014.70 1014.93 1015.18 1015.46 1015.76 1016.07 1016.36 1016.59
1010.43 1011.69 1012.79 1013.53 1013.77 1013.47 1012.67 1011.50 1010.15 1008.83 1007.72 1006.92 1006.48 1006.35 1006.44 1006.63 1006.83 1006.96 1007.02 1007.05 1007.10 1007.23 1007.50 1007.91 1008.45 1009.03 1009.61 1010.13 1010.55 1010.88 1011.14 1011.38 1011.65 1011.97 1012.35 1012.77 1013.20 1013.60 1013.95 1014.25 1014.50 1014.75 1015.01 1015.30 1015.63 1015.99 1016.33 1016.64 1016.89
1011.09 1012.27 1013.21 1013.75 1013.77 1013.26 1012.30 1011.02 1009.64 1008.34 1007.28 1006.57 1006.22 1006.17 1006.33 1006.58 1006.83 1007.01 1007.12 1007.20 1007.31 1007.50 1007.82 1008.26 1008.80 1009.37 1009.93 1010.42 1010.82 1011.13 1011.39 1011.64 1011.92 1012.25 1012.62 1013.03 1013.42 1013.78 1014.09 1014.36 1014.60 1014.84 1015.12 1015.45 1015.82 1016.22 1016.60 1016.92 1017.17
1011.66 1012.69 1013.43 1013.74 1013.55 1012.89 1011.83 1010.54 1009.20 1008.00 1007.08 1006.51 1006.28 1006.32 1006.55 1006.84 1007.12 1007.33 1007.47 1007.59 1007.73 1007.96 1008.29 1008.73 1009.24 1009.77 1010.27 1010.70 1011.04 1011.33 1011.58 1011.83 1012.13 1012.48 1012.88 1013.28 1013.67 1014.02 1014.31 1014.55 1014.77 1015.01 1015.30 1015.65 1016.04 1016.46 1016.85 1017.18 1017.43
1012.07 1012.90 1013.41 1013.50 1013.13 1012.36 1011.27 1010.03 1008.82 1007.79 1007.05 1006.64 1006.54 1006.68 1006.96 1007.28 1007.57 1007.78 1007.94 1008.08 1008.25 1008.49 1008.82 1009.24 1009.69 1010.16 1010.57 1010.92 1011.20 1011.43 1011.67 1011.93 1012.26 1012.65 1013.08 1013.52 1013.93 1014.29 1014.58 1014.81 1015.03 1015.26 1015.54 1015.89 1016.28 1016.69 1017.09 1017.42 1017.66
1012.27 1012.89 1013.17 1013.05 1012.54 1011.69 1010.63 1009.50 1008.46 1007.63 1007.08 1006.84 1006.87 1007.08 1007.40 1007.73 1008.01 1008.22 1008.39 1008.55 1008.74 1008.99 1009.32 1009.70 1010.10 1010.48 1010.80 1011.06 1011.26 1011.45 1011.65 1011.93 1012.28 1012.72 1013.21 1013.71 1014.17 1014.56 1014.87 1015.12 1015.33 1015.55 1015.82 1016.14 1016.52 1016.92 1017.29 1017.61 1017.84
1012.27 1012.67 1012.73 1012.43 1011.80 1010.94 1009.94 1008.95 1008.09 1007.46 1007.11 1007.02 1007.15 1007.42 1007.75 1008.07 1008.33 1008.54 1008.71 1008.88 1009.09 1009.36 1009.69 1010.04 1010.40 1010.70 1010.94 1011.12 1011.25 1011.38 1011.56 1011.84 1012.23 1012.72 1013.27 1013.83 1014.35 1014.79 1015.14 1015.41 1015.63 1015.84 1016.09 1016.39 1016.73 1017.10 1017.45 1017.75 1017.97
1012.09 1012.29 1012.15 1011.70 1011.00 1010.14 1009.23 1008.39 1007.72 1007.28 1007.09 1007.12 1007.33 1007.62 1007.94 1008.24 1008.48 1008.67 1008.84 1009.04 1009.27 1009.56 1009.90 1010.24 1010.56 1010.81 1010.99 1011.09 1011.16 1011.25 1011.42 1011.69 1012.10 1012.63 1013.23 1013.85 1014.43 1014.93 1015.33 1015.64 1015.88 1016.09 1016.33 1016.60 1016.92 1017.25 1017.58 1017.85 1018.06
1011.82 1011.83 1011.53 1010.97 1010.22 1009.39 1008.58 1007.88 1007.37 1007.09 1007.03 1007.16 1007.40 1007.70 1007.99 1008.25 1008.46 1008.64 1008.81 1009.02 1009.28 1009.60 1009.94 1010.29 1010.59 1010.81 1010.95 1011.01 1011.05 1011.10 1011.24 1011.52 1011.93 1012.48 1013.12 1013.78 1014.42 1014.97 1015.43 1015.78 1016.05 1016.29 1016.53 1016.78 1017.08 1017.38 1017.68 1017.93 1018.13
1011.52 1011.38 1010.95 1010.31 1009.54 1008.76 1008.05 1007.48 1007.11 1006.96 1006.99 1007.16 1007.42 1007.70 1007.97 1008.19 1008.36 1008.52 1008.69 1008.90 1009.17 1009.50 1009.86 1010.21 1010.51 1010.73 1010.85 1010.90 1010.91 1010.95 1011.08 1011.33 1011.74 1012.29 1012.94 1013.63 1014.30 1014.91 1015.42 1015.83 1016.15 1016.42 1016.68 1016.94 1017.22 1017.50 1017.78 1018.02 1018.20
1011.30 1011.03 1010.51 1009.82 1009.07 1008.34 1007.71 1007.26 1006.99 1006.93 1007.02 1007.22 1007.48 1007.73 1007.96 1008.14 1008.28 1008.41 1008.56 1008.76 1009.03 1009.35 1009.71 1010.06 1010.36 1010.58 1010.71 1010.76 1010.78 1010.81 1010.92 1011.16 1011.54 1012.07 1012.71 1013.40 1014.10 1014.75 1015.32 1015.80 1016.18 1016.51 1016.81 1017.09 1017.37 1017.65 1017.90 1018.13 1018.30
1011.21 1010.85 1010.27 1009.57 1008.84 1008.18 1007.63 1007.26 1007.07 1007.06 1007.18 1007.39 1007.63 1007.86 1008.05 1008.19 1008.30 1008.40 1008.52 1008.69 1008.93 1009.22 1009.55 1009.89 1010.18 1010.41 1010.55 1010.62 1010.65 1010.69 1010.79 1011.00 1011.35 1011.84 1012.44 1013.13 1013.84 1014.53 1015.16 1015.70 1016.17 1016.57 1016.92 1017.24 1017.54 1017.81 1018.06 1018.27 1018.42
1011.26 1010.85 1010.26 1009.57 1008.89 1008.29 1007.81 1007.50 1007.35 1007.36 1007.48 1007.68 1007.89 1008.10 1008.27 1008.39 1008.47 1008.54 1008.62 1008.75 1008.92 1009.16 1009.44 1009.73 1010.00 1010.22 1010.37 1010.46 1010.51 1010.56 1010.66 1010.84 1011.15 1011.59 1012.16 1012.83 1013.54 1014.26 1014.95 1015.58 1016.13 1016.61 1017.03 1017.39 1017.72 1018.00 1018.24 1018.43 1018.57
1011.44 1011.01 1010.43 1009.80 1009.18 1008.64 1008.22 1007.94 1007.80 1007.80 1007.90 1008.06 1008.25 1008.43 1008.58 1008.70 1008.77 1008.82 1008.87 1008.93 1009.04 1009.20 1009.40 1009.62 1009.85 1010.05 1010.20 1010.31 1010.37 1010.43 1010.52 1010.68 1010.96 1011.36 1011.88 1012.52 1013.24 1013.99 1014.74 1015.44 1016.08 1016.64 1017.12 1017.53 1017.88 1018.17 1018.41 1018.59 1018.71
1011.67 1011.27 1010.75 1010.19 1009.65 1009.18 1008.80 1008.53 1008.37 1008.31 1008.35 1008.46 1008.61 1008.77 1008.93 1009.05 1009.14 1009.19 1009.21 1009.23 1009.27 1009.34 1009.45 1009.59 1009.75 1009.91 1010.05 1010.16 1010.23 1010.30 1010.39 1010.53 1010.77 1011.13 1011.62 1012.24 1012.95 1013.72 1014.52 1015.29 1016.00 1016.63 1017.17 1017.62 1017.99 1018.29 1018.53 1018.71 1018.83
1011.89 1011.55 1011.13 1010.68 1010.24 1009.84 1009.48 1009.19 1008.97 1008.83 1008.77 1008.80 1008.89 1009.03 1009.19 1009.35 1009.47 1009.55 1009.59 1009.59 1009.57 1009.57 1009.59 1009.65 1009.73 1009.84 1009.94 1010.04 1010.11 1010.18 1010.26 1010.39 1010.61 1010.93 1011.40 1011.99 1012.70 1013.49 1014.32 1015.13 1015.89 1016.57 1017.15 1017.63 1018.02 1018.33 1018.57 1018.76 1018.90
1012.01 1011.79 1011.52 1011.21 1010.89 1010.56 1010.21 1009.86 1009.54 1009.27 1009.08 1009.00 1009.01 1009.12 1009.30 1009.50 1009.69 1009.84 1009.92 1009.94 1009.91 1009.86 1009.81 1009.79 1009.80 1009.84 1009.90 1009.97 1010.04 1010.10 1010.18 1010.30 1010.49 1010.80 1011.24 1011.81 1012.52 1013.31 1014.14 1014.98 1015.76 1016.46 1017.06 1017.55 1017.94 1018.26 1018.52 1018.73 1018.89
1012.01 1011.95 1011.87 1011.74 1011.55 1011.28 1010.93 1010.51 1010.05 1009.62 1009.25 1009.02 1008.93 1009.00 1009.19 1009.46 1009.74 1009.99 1010.16 1010.24 1010.24 1010.18 1010.09 1010.01 1009.96 1009.93 1009.95 1009.98 1010.03 1010.08 1010.15 1010.27 1010.46 1010.76 1011.18 1011.74 1012.42 1013.20 1014.02 1014.85 1015.62 1016.31 1016.90 1017.38 1017.77 1018.09 1018.36 1018.60 1018.81
1011.87 1012.02 1012.16 1012.24 1012.20 1012.00 1011.63 1011.11 1010.49 1009.85 1009.28 1008.87 1008.66 1008.66 1008.86 1009.19 1009.59 1009.96 1010.26 1010.45 1010.52 1010.49 1010.40 1010.29 1010.19 1010.12 1010.08 1010.08 1010.10 1010.15 1010.22 1010.34 1010.53 1010.82 1011.24 1011.78 1012.44 1013.18 1013.97 1014.76 1015.50 1016.15 1016.69 1017.14 1017.51 1017.83 1018.11 1018.39 1018.66
1011.62 1012.03 1012.42 1012.71 1012.82 1012.69 1012.29 1011.65 1010.84 1009.98 1009.20 1008.59 1008.23 1008.16 1008.36 1008.75 1009.26 1009.78 1010.22 1010.55 1010.72 1010.77 1010.71 1010.60 1010.47 1010.36 1010.29 1010.26 1010.27 1010.31 1010.39 1010.52 1010.72 1011.02 1011.43 1011.95 1012.57 1013.28 1014.01 1014.74 1015.41 1015.99 1016.48 1016.89 1017.22 1017.52 1017.82 1018.12 1018.45
1011.32 1011.99 1012.63 1013.14 1013.40 1013.32 1012.89 1012.12 1011.14 1010.05 1009.04 1008.23 1007.73 1007.58 1007.76 1008.20 1008.81 1009.47 1010.07 1010.54 1010.84 1010.97 1010.97 1010.89 1010.76 1010.64 1010.56 1010.51 1010.52 1010.56 1010.66 1010.81 1011.03 1011.33 1011.73 1012.24 1012.83 1013.47 1014.14 1014.79 1015.38 1015.88 1016.30 1016.64 1016.93 1017.21 1017.50 1017.83 1018.19
1011.00 1011.92 1012.81 1013.51 1013.89 1013.86 1013.38 1012.51 1011.35 1010.07 1008.85 1007.86 1007.22 1006.98 1007.14 1007.63 1008.32 1009.10 1009.83 1010.43 1010.85 1011.09 1011.16 1011.12 1011.02 1010.91 1010.83 1010.80 1010.81 1010.88 1010.99 1011.17 1011.41 1011.73 1012.13 1012.61 1013.16 1013.74 1014.34 1014.90 1015.40 1015.82 1016.16 1016.43 1016.68 1016.92 1017.19 1017.52 1017.90
1010.70 1011.84 1012.92 1013.78 1014.25 1014.24 1013.73 1012.76 1011.46 1010.02 1008.65 1007.52 1006.77 1006.46 1006.60 1007.10 1007.85 1008.71 1009.55 1010.26 1010.78 1011.11 1011.26 1011.28 1011.22 1011.14 1011.09 1011.08 1011.12 1011.22 1011.37 1011.57 1011.84 1012.16 1012.56 1013.01 1013.52 1014.04 1014.57 1015.04 1015.46 1015.80 1016.06 1016.27 1016.46 1016.66 1016.91 1017.21 1017.58
1010.42 1011.71 1012.93 1013.88 1014.40 1014.40 1013.84 1012.81 1011.43 1009.89 1008.42 1007.21 1006.40 1006.06 1006.17 1006.68 1007.47 1008.37 1009.27 1010.05 1010.65 1011.04 1011.26 1011.34 1011.35 1011.33 1011.32 1011.35 1011.44 1011.57 1011.76 1011.99 1012.27 1012.59 1012.97 1013.39 1013.85 1014.32 1014.77 1015.17 1015.52 1015.79 1015.99 1016.14 1016.28 1016.44 1016.64 1016.90 1017.23
1010.13 1011.51 1012.78 1013.75 1014.28 1014.26 1013.68 1012.61 1011.21 1009.65 1008.17 1006.96 1006.14 1005.80 1005.92 1006.43 1007.21 1008.13 1009.04 1009.85 1010.48 1010.93 1011.20 1011.35 1011.42 1011.46 1011.52 1011.61 1011.74 1011.92 1012.13 1012.37 1012.65 1012.97 1013.32 1013.70 1014.10 1014.51 1014.90 1015.24 1015.53 1015.75 1015.90 1016.01 1016.11 1016.22 1016.37 1016.58 1016.85
1009.83 1011.20 1012.44 1013.37 1013.85 1013.80 1013.21 1012.16 1010.79 1009.30 1007.90 1006.76 1006.01 1005.71 1005.85 1006.36 1007.13 1008.02 1008.92 1009.71 1010.35 1010.81 1011.13 1011.33 1011.47 1011.58 1011.71 1011.86 1012.04 1012.25 1012.48 1012.72 1012.98 1013.26 1013.56 1013.89 1014.23 1014.58 1014.92 1015.22 1015.47 1015.65 1015.78 1015.86 1015.93 1015.99 1016.09 1016.24 1016.44
1009.49 1010.77 1011.91 1012.74 1013.14 1013.04 1012.46 1011.47 1010.21 1008.87 1007.62 1006.64 1006.02 1005.81 1006.01 1006.52 1007.26 1008.11 1008.94 1009.69 1010.30 1010.77 1011.11 1011.36 1011.56 1011.74 1011.93 1012.14 1012.36 1012.58 1012.80 1013.02 1013.24 1013.46 1013.69 1013.95 1014.24 1014.53 1014.82 1015.09 1015.32 1015.49 1015.61 1015.68 1015.72 1015.75 1015.80 1015.89 1016.01
1009.15 1010.28 1011.26 1011.94 1012.24 1012.09 1011.54 1010.65 1009.55 1008.41 1007.39 1006.62 1006.19 1006.11 1006.38 1006.91 1007.62 1008.40 1009.16 1009.84 1010.40 1010.85 1011.20 1011.48 1011.74 1011.98 1012.23 1012.48 1012.72 1012.94 1013.14 1013.30 1013.45 1013.59 1013.75 1013.93 1014.15 1014.39 1014.65 1014.90 1015.12 1015.29 1015.41 1015.48 1015.50 1015.50 1015.50 1015.52 1015.57
Thickness
5808 5807 5804 5795 5777 5756 5753 5767 5778 5780 5784 5793 5796 5791 5783 5777 5771 5769 5788 5796 5794 5791 5787 5785 5783 5781 5780 5778 5777 5777 5776 5775 5774 5773 5772 5772 5771 5770 5770 5769 5769 5768 5768 5767 5767 5766 5766 5765 5765
5808 5806 5798 5784 5760 5741 5751 5771 5777 5783 5791 5797 5797 5793 5785 5782 5787 5787 5790 5793 5793 5790 5787 5784 5782 5780 5778 5777 5776 5775 5774 5774 5773 5772 5771 5770 5770 5769 5768 5767 5767 5766 5766 5765 5765 5764 5764 5763 5763
5808 5805 5787 5770 5754 5746 5759 5776 5782 5790 5798 5797 5792 5792 5787 5784 5789 5789 5792 5793 5791 5788 5785 5783 5781 5779 5777 5775 5774 5773 5773 5772 5771 5770 5769 5768 5768 5767 5766 5766 5765 5764 5764 5763 5763 5762 5761 5761 5760
5803 5792 5779 5762 5756 5764 5772 5782 5788 5789 5794 5797 5791 5784 5788 5795 5794 5794 5794 5792 5789 5786 5784 5782 5780 5778 5776 5774 5773 5772 5771 5770 5769 5768 5767 5767 5766 5765 5764 5764 5763 5763 5762 5761 5760 5760 5759 5759 5758
5797 5780 5762 5750 5758 5771 5782 5789 5791 5787 5787 5791 5790 5780 5781 5792 5797 5795 5793 5791 5787 5784 5782 5780 5778 5776 5774 5773 5772 5770 5769 5768 5767 5766 5765 5764 5764 5763 5762 5761 5761 5760 5760 5759 5758 5758 5757 5756 5755
5780 5769 5748 5743 5758 5773 5784 5791 5791 5787 5787 5790 5787 5779 5779 5789 5791 5790 5790 5787 5785 5782 5780 5778 5776 5774 5772 5771 5770 5768 5767 5765 5764 5763 5763 5762 5762 5761 5760 5759 5759 5758 5757 5756 5756 5755 5755 5754 5753
5773 5760 5749 5752 5757 5768 5784 5793 5789 5785 5784 5787 5790 5776 5777 5784 5788 5789 5787 5784 5782 5780 5777 5775 5773 5772 5770 5769 5768 5766 5765 5763 5762 5761 5760 5759 5759 5758 5757 5756 5756 5756 5755 5754 5754 5753 5752 5751 5751
5779 5762 5753 5752 5757 5766 5785 5791 5792 5789 5787 5797 5794 5778 5775 5783 5787 5786 5783 5780 5778 5777 5775 5773 5771 5770 5768 5767 5766 5764 5763 5762 5760 5759 5757 5756 5756 5755 5754 5753 5753 5754 5753 5752 5751 5750 5749 5749 5748
5782 5754 5744 5754 5761 5770 5784 5784 5790 5797 5792 5793 5794 5790 5790 5790 5786 5781 5777 5774 5773 5773 5772 5771 5770 5768 5767 5765 5764 5762 5761 5759 5758 5756 5755 5753 5753 5752 5751 5750 5750 5750 5750 5749 5748 5748 5748 5747 5746
5768 5747 5757 5771 5777 5778 5782 5783 5785 5786 5783 5783 5785 5789 5791 5787 5782 5777 5773 5771 5770 5770 5770 5770 5768 5767 5765 5763 5762 5760 5759 5757 5755 5754 5752 5751 5750 5749 5748 5748 5747 5747 5746 5746 5745 5745 5745 5744 5743
5768 5758 5770 5778 5784 5784 5781 5783 5788 5781 5774 5781 5782 5783 5784 5781 5777 5775 5774 5773 5772 5771 5769 5769 5767 5765 5763 5761 5760 5758 5756 5755 5753 5751 5750 5748 5747 5746 5745 5744 5744 5743 5743 5743 5742 5742 5741 5741 5741
5765 5769 5775 5779 5786 5784 5782 5784 5782 5782 5785 5795 5793 5790 5785 5779 5776 5775 5773 5772 5771 5769 5768 5767 5766 5764 5762 5760 5757 5756 5754 5752 5751 5749 5748 5746 5745 5744 5742 5741 5741 5740 5740 5739 5739 5739 5738 5738 5738
5763 5768 5777 5781 5782 5782 5783 5781 5780 5783 5792 5796 5792 5787 5783 5780 5778 5777 5775 5772 5770 5768 5767 5766 5765 5763 5761 5758 5756 5754 5753 5751 5749 5747 5746 5745 5743 5741 5740 5739 5738 5738 5737 5737 5736 5736 5735 5735 5735
5765 5768 5772 5777 5779 5781 5778 5778 5779 5782 5790 5788 5785 5782 5781 5780 5777 5775 5773 5770 5769 5768 5766 5765 5763 5762 5759 5757 5755 5753 5751 5748 5747 5745 5744 5743 5741 5739 5738 5736 5735 5735 5734 5734 5734 5733 5732 5732 5731
5766 5761 5764 5771 5775 5777 5776 5767 5772 5783 5784 5780 5780 5780 5779 5779 5777 5776 5775 5772 5770 5767 5765 5763 5762 5760 5757 5755 5754 5751 5749 5747 5745 5743 5742 5740 5739 5737 5735 5733 5732 5731 5731 5730 5730 5730 5729 5729 5728
5756 5748 5744 5761 5769 5773 5765 5750 5772 5781 5777 5773 5775 5777 5776 5776 5777 5777 5776 5773 5770 5767 5764 5761 5761 5757 5755 5754 5752 5750 5748 5746 5743 5741 5740 5738 5736 5734 5732 5730 5729 5728 5727 5727 5726 5725 5724 5724 5724
5732 5728 5736 5749 5764 5765 5758 5751 5769 5776 5773 5769 5771 5773 5773 5773 5774 5775 5775 5773 5770 5767 5763 5760 5758 5756 5753 5751 5749 5747 5745 5743 5741 5739 5737 5736 5734 5732 5730 5728 5726 5725 5724 5723 5722 5721 5720 5719 5719
5721 5727 5732 5739 5754 5756 5750 5750 5763 5769 5768 5767 5767 5768 5769 5769 5772 5775 5775 5773 5769 5766 5762 5759 5756 5754 5751 5748 5746 5743 5741 5739 5738 5736 5734 5732 5731 5730 5727 5725 5723 5721 5720 5718 5717 5716 5715 5714 5714
5732 5729 5728 5738 5752 5748 5744 5746 5756 5762 5762 5761 5762 5764 5765 5767 5772 5773 5772 5770 5767 5764 5760 5757 5753 5751 5748 5745 5742 5739 5736 5735 5733 5732 5730 5729 5728 5726 5724 5722 5720 5717 5715 5714 5712 5711 5709 5708 5709
5729 5724 5725 5736 5750 5746 5739 5742 5753 5759 5759 5762 5762 5763 5764 5764 5765 5766 5767 5766 5764 5761 5758 5756 5752 5749 5747 5743 5741 5737 5734 5731 5729 5728 5727 5727 5725 5723 5721 5719 5716 5714 5711 5709 5708 5706 5704 5704 5704
5724 5722 5726 5729 5738 5741 5737 5732 5743 5753 5758 5761 5762 5762 5762 5762 5761 5761 5762 5761 5760 5758 5755 5754 5751 5747 5744 5741 5737 5733 5730 5727 5725 5723 5722 5723 5722 5721 5718 5716 5713 5711 5708 5706 5704 5703 5701 5699 5698
5718 5734 5734 5731 5720 5712 5725 5706 5730 5740 5746 5752 5755 5757 5758 5759 5759 5758 5758 5757 5757 5755 5753 5751 5748 5744 5742 5738 5734 5730 5726 5722 5721 5720 5718 5718 5718 5716 5714 5713 5711 5708 5705 5703 5701 5700 5698 5696 5693
5729 5739 5733 5727 5716 5707 5712 5705 5717 5733 5736 5744 5750 5753 5755 5755 5755 5754 5755 5754 5754 5752 5750 5747 5744 5741 5739 5736 5731 5726 5723 5720 5718 5716 5714 5713 5713 5712 5710 5709 5707 5704 5702 5699 5698 5696 5695 5693 5691
5736 5727 5717 5705 5699 5691 5705 5700 5707 5722 5734 5741 5747 5750 5751 5751 5751 5751 5751 5750 5748 5747 5744 5741 5738 5736 5734 5732 5728 5724 5720 5717 5714 5711 5709 5708 5708 5707 5706 5705 5703 5701 5699 5696 5695 5693 5692 5690 5688
5726 5705 5684 5682 5674 5682 5704 5701 5707 5732 5739 5742 5743 5745 5746 5746 5745 5744 5743 5742 5741 5739 5737 5735 5733 5730 5730 5727 5724 5721 5717 5715 5712 5708 5705 5703 5702 5701 5701 5701 5699 5697 5695 5693 5691 5689 5687 5686 5684
5715 5706 5682 5673 5671 5679 5696 5695 5714 5734 5739 5741 5742 5741 5739 5739 5739 5738 5737 5736 5735 5733 5731 5729 5727 5724 5723 5722 5719 5717 5715 5711 5709 5706 5703 5700 5698 5698 5697 5696 5694 5692 5691 5689 5687 5685 5683 5682 5680
5709 5701 5705 5684 5678 5673 5681 5696 5715 5730 5731 5732 5733 5732 5732 5732 5732 5731 5730 5730 5729 5727 5726 5724 5721 5719 5718 5716 5714 5712 5710 5708 5705 5702 5699 5697 5695 5694 5693 5691 5689 5687 5686 5684 5682 5680 5679 5678 5677
5717 5704 5687 5677 5665 5663 5677 5687 5697 5715 5720 5724 5724 5725 5726 5726 5725 5724 5723 5723 5722 5721 5719 5718 5716 5714 5712 5711 5709 5707 5705 5702 5700 5698 5695 5693 5692 5690 5688 5685 5683 5682 5681 5680 5678 5676 5675 5674 5673
5702 5696 5686 5674 5674 5664 5663 5681 5714 5716 5719 5719 5721 5722 5721 5721 5720 5718 5717 5716 5715 5714 5712 5710 5710 5708 5707 5705 5703 5700 5699 5696 5694 5692 5690 5688 5686 5685 5683 5681 5678 5677 5677 5676 5674 5673 5672 5671 5669
5706 5696 5685 5676 5671 5667 5666 5682 5717 5717 5717 5716 5716 5716 5715 5715 5714 5713 5711 5709 5708 5707 5706 5705 5703 5702 5701 5699 5697 5694 5692 5690 5688 5686 5684 5682 5680 5679 5677 5675 5674 5673 5673 5671 5670 5669 5668 5667 5666